Retour au catalogue

ONEWEB-0388

ActifCommunicationsPO
NORAD 49314·PAYLOAD·🇬🇧 United Kingdom

Lancé Oct 14, 2021 depuis Vostochny Cosmodrome

Loading…

Prochains Passages (prochaines 24 heures)

TLE

FraisSource: CelesTrak SupGP

Époque: Sep 14, 2026, 16:02 UTC

1 49314C 21090AM  26257.66819861 -.00002269  00000+0 -56743-2 0  2574
2 49314  87.9102 287.1423 0002066  96.5300  17.6028 13.19728206    18

Suivez ONEWEB-0388 en temps réel avec AllMySat

Download on the App Store